Tracking 27112 objects as of 26-Mar-2023
HD Live streaming from Space Station
objects crossing your sky now

WESTFORD NEEDLES

Track WESTFORD NEEDLES now!
10-day predictions
WESTFORD NEEDLES is classified as:


NORAD ID: 2362
Int'l Code: 1963-014M
Perigee: 1,285.7 km
Apogee: 5,782.2 km
Inclination: 85.5 °
Period: 163.5 minutes
Semi major axis: 9904 km
RCS: 0.2493 m2 (medium)
Launch date: May 9, 1963
Source: United States (US)
Launch site: AIR FORCE WESTERN TEST RANGE (AFWTR)
Your satellite tracking list
Your tracking list is empty




NASA's NSSDC Master Catalog

Two Line Element Set (TLE):
1  2362U 63014M   23085.30785632  .00001227  00000-0  30857-1 0  9995
2  2362  85.5157 191.2025 2269818 348.5727   7.0904  8.80691937902639
Source of the keplerian elements: AFSPC